Martinsburg, WV

2:04 PM EDT on March 27, 2017 (GMT -0400)
Eastern W Va Regional-Shepherd

Weather History for KMRB - June, 2014

Change the Weather History Date:

Sunday, June 29, 2014

  Actual Average Record
Temperature  
Mean Temperature 75 °F 74 °F  
Max Temperature 86 °F 85 °F 102 °F (2012)
Min Temperature 64 °F 62 °F 51 °F (1926)
Degree Days  
Heating Degree Days 0 0  
Month to date heating degree days 2 22  
Since 1 June heating degree days 2 22  
Since 1 July heating degree days 5388 5247  
Cooling Degree Days 10 9  
Month to date cooling degree days 223 174  
Year to date cooling degree days 304 231  
Since 1 June cooling degree days 223 174  
Growing Degree Days 24 (Base 50)    
Moisture  
Dew Point 56 °F    
Average Humidity 59    
Maximum Humidity 84    
Minimum Humidity 34    
Precipitation  
Precipitation 0.00 in 0.12 in 0.84 in (1972)
Month to date precipitation 2.66 3.64  
Year to date precipitation 17.53 19.37  
Sea Level Pressure  
Sea Level Pressure 30.18 in    
Wind  
Wind Speed 6 mph (South)    
Max Wind Speed 18 mph    
Max Gust Speed 23 mph    
Visibility 10 miles    
Events      
T = Trace of Precipitation, MM = Missing Value Source: NWS Daily Summary

Daily Weather History Graph

Daily Weather History Graph

Search for Another Location

Airport or City:

Trip Planner

Search our weather history database for the weather conditions in past years. The results will help you decide how hot, cold, wet, or windy it might be!

Date:

Astronomy

Jun. 29, 2014 Rise Set
Actual Time 5:47 AM EDT 8:42 PM EDT
Civil Twilight 5:15 AM EDT 9:15 PM EDT
Nautical Twilight 4:34 AM EDT 9:55 PM EDT
Astronomical Twilight 3:47 AM EDT 10:43 PM EDT
Moon 8:03 AM EDT (6/29) 10:03 PM EDT (6/29)
Length of Visible Light 15h 59m
Length of Day
14h 55m
Waxing Crescent, 5% of the Moon is Illuminated
Jun 29
Waxing Crescent
Jul 5
First Quarter
Jul 12
Full
Jul 18
Last Quarter
Jul 26
New

Hourly Weather History & Observations

Time (EDT) Temp. Heat Index Dew Point Humidity Pressure Visibility Wind Dir Wind Speed Gust Speed Precip Events Conditions
12:53 AM 70.0 °F - 57.9 °F 65% 30.24 in 10.0 mi Calm Calm - N/A   Mostly Cloudy
1:53 AM 69.1 °F - 59.0 °F 70% 30.24 in 10.0 mi SSE 4.6 mph - N/A   Scattered Clouds
2:53 AM 66.0 °F - 59.0 °F 78% 30.23 in 10.0 mi Calm Calm - N/A   Mostly Cloudy
3:53 AM 68.0 °F - 59.0 °F 73% 30.23 in 10.0 mi SW 3.5 mph - N/A   Scattered Clouds
4:53 AM 66.9 °F - 59.0 °F 76% 30.23 in 10.0 mi Calm Calm - N/A   Overcast
5:53 AM 64.9 °F - 59.0 °F 81% 30.22 in 10.0 mi Calm Calm - N/A   Partly Cloudy
6:53 AM 68.0 °F - 60.1 °F 76% 30.22 in 10.0 mi Calm Calm - N/A   Mostly Cloudy
7:53 AM 72.0 °F - 59.0 °F 64% 30.23 in 10.0 mi Calm Calm - N/A   Scattered Clouds
8:53 AM 75.0 °F - 59.0 °F 57% 30.24 in 10.0 mi South 4.6 mph - N/A   Partly Cloudy
9:53 AM 79.0 °F - 55.9 °F 45% 30.22 in 10.0 mi South 9.2 mph - N/A   Mostly Cloudy
10:53 AM 78.1 °F - 55.9 °F 46% 30.22 in 10.0 mi South 8.1 mph - N/A   Overcast
11:53 AM 80.1 °F 80.1 °F 55.0 °F 42% 30.21 in 10.0 mi South 9.2 mph - N/A   Mostly Cloudy
12:53 PM 82.0 °F - 52.0 °F 35% 30.19 in 10.0 mi SSW 12.7 mph - N/A   Scattered Clouds
1:53 PM 84.9 °F 83.3 °F 54.0 °F 34% 30.18 in 10.0 mi SSE 12.7 mph 23.0 mph N/A   Partly Cloudy
2:53 PM 84.0 °F 82.9 °F 55.0 °F 37% 30.17 in 10.0 mi South 11.5 mph 20.7 mph N/A   Clear
3:53 PM 84.0 °F 82.9 °F 55.0 °F 37% 30.15 in 10.0 mi SSE 12.7 mph - N/A   Clear
4:53 PM 82.9 °F 81.9 °F 54.0 °F 37% 30.13 in 10.0 mi South 12.7 mph 20.7 mph N/A   Clear
5:53 PM 81.0 °F - 52.0 °F 36% 30.12 in 10.0 mi SSE 9.2 mph - N/A   Scattered Clouds
6:53 PM 80.1 °F 79.9 °F 53.1 °F 39% 30.11 in 10.0 mi SSE 6.9 mph - N/A   Overcast
7:53 PM 79.0 °F - 53.1 °F 40% 30.11 in 10.0 mi South 5.8 mph - N/A   Overcast
8:53 PM 75.0 °F - 54.0 °F 48% 30.11 in 10.0 mi South 4.6 mph - N/A   Clear
9:53 PM 73.9 °F - 54.0 °F 50% 30.12 in 10.0 mi South 3.5 mph - N/A   Overcast
10:53 PM 73.9 °F - 55.0 °F 52% 30.11 in 10.0 mi South 4.6 mph - N/A   Overcast
11:53 PM 73.0 °F - 55.0 °F 53% 30.11 in 10.0 mi Calm Calm - N/A   Scattered Clouds